sat.trackr.live / text

‹ back to catalog

FLOCK 4BE-24

NORAD 60505 · 2024-149AP

PAYLOAD ACTIVE UNKNOWN

§ Identity

Operator
Country
US
Launch date
2024-08-16
Launch site
AFWTR
Launch vehicle
Mass (kg)
RCS (m²)

Purposes: earth_obs

External: N2YO · Heavens-Above · Gunter

§ Orbital elements

Epoch: 2026-05-24T19:36:10.053792Z

Period
93.38 min
Inclination
97.3712°
Eccentricity
0.0003509
Mean motion
15.42074045 rev/d
Perigee alt
437.6 km
Apogee alt
442.4 km
Semi-major
6,818.1 km
B*
4.0585e-4
RAAN
228.9635°
Arg perigee
34.6753°
Mean anomaly
325.4723°
Rev number
9,876

§ Raw data

FLOCK 4BE-241 60505U 24149AP  26144.81678303  .00017275  00000+0  40585-3 0  99952 60505  97.3712 228.9635 0003509  34.6753 325.4723 15.42074045 98765

JSON: /api/v1/satellites/60505 · /tle

For live sub-satellite position, see the globe view (requires WebGL).

§ Visibility from observer

Set your observer location to see the next 7 days of passes ≥ 10°. The values pass through the URL so the page stays shareable.

No JS? Fill the form by hand. The geolocation button needs JavaScript.